Home > Weather > Saratov > Past weeks

Flag for Russia Past Weather in Saratov, Russia — Yesterday and Last 2 Weeks

Now
79 °F

More clouds than sun.


Feels Like: 80 °F
Forecast: 71 / 84 °F
Wind: 8 mph from Northwest

Location: Saratov / Tsentralny

Current Time: Jul 28, 2016 at 5:44:58 PM

Latest Report: Jul 28, 2016 at 5:00 PM


Visibility: N/A

Pressure: 29.95 "Hg

Humidity: 48%

Dew Point: 57 °F

Location of SaratovLocation

Past Weather in Saratov — Graph

°F

Saratov Temperature Yesterday

Maximum temperature yesterday: 81 °F (at 12:00 PM)
Minimum temperature yesterday: 61 °F (at 4:00 AM)
Average temperature yesterday: 72 °F

High & Low Weather Summary for the Past Weeks

 TemperatureHumidityPressure
High95 °F (Jul 14, 3:00 PM)100% (Jul 22, 5:00 AM)30.04 "Hg (Jul 22, 5:00 AM)
Low61 °F (Jul 27, 4:00 AM)30% (Jul 14, 3:00 PM)29.68 "Hg (Jul 19, 6:00 PM)
Average77 °F60%29.87 "Hg
* Reported Jul 13 4:00 PM — Jul 28 4:30 PM, Saratov, Weather by CustomWeather, © 2016

Note: Actual official high and low records may vary slightly from our data, if they occured in-between our weather recording intervals... More about our weather records

Advertising

Saratov Weather History for the Previous 24 Hours

Scroll right to see more
 ConditionsComfort  
Time TempWeatherWind HumidityBarometerVisibility
4:30 PM
Thu, Jul 28
81 °FSunny.8 mph45%29.95 "Hg10 mi
4:00 PM81 °FSunny.10 mph45%29.95 "Hg10 mi
3:30 PM81 °FSunny.10 mph48%29.98 "Hg10 mi
3:00 PM81 °FSunny.10 mph48%29.98 "Hg10 mi
2:30 PM81 °FPartly sunny.10 mph42%29.98 "HgN/A
2:00 PM81 °FPartly sunny.10 mph42%29.98 "HgN/A
1:30 PM81 °FPartly sunny.13 mph39%29.98 "HgN/A
1:00 PM81 °FPartly sunny.13 mph39%29.98 "HgN/A
12:30 PM82 °FPartly sunny.10 mph37%29.98 "HgN/A
12:00 PM82 °FPartly sunny.10 mph37%29.98 "HgN/A
11:30 AM81 °FBroken clouds.6 mph39%29.98 "HgN/A
11:00 AM81 °FBroken clouds.6 mph39%29.98 "HgN/A
10:30 AM81 °FPartly sunny.1 mph39%30.01 "Hg4 mi
10:00 AM81 °FPartly sunny.6 mph39%30.01 "Hg4 mi
9:30 AM79 °FPartly sunny.1 mph51%30.01 "Hg4 mi
9:00 AM79 °FPartly sunny.1 mph51%30.01 "Hg4 mi
8:30 AM73 °FScattered clouds.1 mph69%30.01 "Hg4 mi
8:00 AM73 °FScattered clouds.1 mph69%30.01 "Hg4 mi
7:30 AM72 °FScattered clouds.1 mph69%30.01 "Hg4 mi
7:00 AM72 °FScattered clouds.1 mph69%30.01 "Hg4 mi
6:30 AM68 °FScattered clouds.No wind69%30.01 "Hg4 mi
6:00 AM68 °FSunny.1 mph69%30.01 "Hg10 mi
5:30 AM68 °FSunny.1 mph64%30.01 "Hg10 mi
5:00 AM68 °FSunny.1 mph64%30.01 "Hg10 mi
4:30 AM68 °FSunny.No wind64%29.98 "Hg10 mi
4:00 AM68 °FClear.3 mph64%29.98 "Hg10 mi
3:30 AM68 °FClear.No wind60%29.98 "Hg10 mi
3:00 AM68 °FClear.6 mph60%29.98 "Hg10 mi
2:30 AM68 °FClear.6 mph60%30.01 "Hg10 mi
2:00 AM68 °FClear.1 mph60%30.01 "Hg10 mi
1:30 AM68 °FClear.1 mph60%30.01 "Hg10 mi
1:00 AM68 °FClear.1 mph60%30.01 "Hg10 mi
12:30 AM70 °FClear.1 mph60%30.01 "Hg10 mi
12:00 AM70 °FClear.1 mph60%30.01 "Hg10 mi
11:30 PM
Wed, Jul 27
68 °FClear.1 mph64%30.01 "Hg10 mi
11:00 PM68 °FClear.1 mph64%30.01 "Hg10 mi
10:30 PM70 °FClear.1 mph57%30.01 "Hg10 mi
10:00 PM70 °FClear.1 mph57%30.01 "Hg10 mi
9:30 PM72 °FClear.1 mph50%30.01 "Hg10 mi
9:00 PM72 °FClear.1 mph50%30.01 "Hg10 mi
8:30 PM75 °FClear.3 mph50%29.98 "Hg10 mi
8:00 PM75 °FClear.3 mph50%29.98 "Hg10 mi
7:30 PM77 °FSunny.3 mph51%29.98 "Hg10 mi
7:00 PM77 °FSunny.3 mph51%29.98 "Hg10 mi
6:30 PM79 °FSunny.3 mph42%29.98 "Hg10 mi
6:00 PM79 °FSunny.8 mph42%29.98 "Hg10 mi
5:30 PM81 °FSunny.8 mph39%29.98 "Hg10 mi
5:00 PM81 °FSunny.8 mph39%29.98 "Hg10 mi
Weather by CustomWeather, © 2016

See weather overviewHow to use our weather pages